Current Version              Previous Version:    01  02  03  04  05  06  07  08  09  10  11  12  13  14  15  16  17  18  19  20  21  22  23  24  25  26  27  28  29  30  
   31  32  33  34  35  36  37  38  39  40  41  42  43  44  45  46  47  48  49  50  51  52  53  54  55  56  57  58  59  60  

[Printable]
341
ASUS44 KLUB 182010
RWRTX
WEST TEXAS WEATHER ROUNDUP
NATIONAL WEATHER SERVICE LUBBOCK TX
200 PM CST THU DEC 18 2014

NOTE: "FAIR" INDICATES FEW OR NO CLOUDS BELOW 12,000 FEET WITH NO
SIGNIFICANT WEATHER AND/OR OBSTRUCTIONS TO VISIBILITY.

TXZ004-006>008-010-012-014-016-OKZ002-182100-
TEXAS PANHANDLE/OKLAHOMA PANHANDLE

CITY           SKY/WX    TMP DP  RH WIND       PRES   REMARKS
AMARILLO       MOSUNNY   39  29  67 VRB6      30.08F WCI  35
BORGER         CLOUDY    36  29  75 N8        30.10F WCI  30
CANADIAN       CLOUDY    42  38  87 NW3       30.10F
DALHART        SUNNY     39  29  67 CALM      30.07F
DUMAS          CLOUDY    34  29  82 CALM      30.08F
GUYMON         CLOUDY    37  31  78 E5        30.09F WCI  33
HEREFORD       SUNNY     44  34  67 CALM      30.06F
PAMPA          CLOUDY    36  31  85 NW3       30.10S
PERRYTON       CLOUDY    37  37  97 N7        30.09F WCI  32
$$

TXZ026-029-035-045-048-182100-
SOUTHERN PANHANDLE/SOUTH PLAINS/ROLLING PLAINS

CITY           SKY/WX    TMP DP  RH WIND       PRES   REMARKS
CHILDRESS      CLOUDY    44  38  79 N8        30.12F
SEMINOLE       MOSUNNY   59  28  31 CALM      30.07F
LUBBOCK        PTSUNNY   55  30  38 N9        30.05F
PLAINVIEW      SUNNY     47  36  66 NE6       30.05F
SNYDER         MOSUNNY   58  32  37 CALM      30.08F
$$

TXZ052-054-060>062-072-078-127-140-154-169-182100-
PERMIAN BASIN/CONCHO VALLEY/BIG COUNTRY/EDWARDS PLATEAU

CITY           SKY/WX    TMP DP  RH WIND       PRES   REMARKS
ABILENE        SUNNY     65  35  33 N6        30.07F
BIG SPRING     SUNNY     64  32  30 SE5       30.08F
BRADY          SUNNY     68  41  37 W6        30.05F
BROWNWOOD      MOSUNNY   64  45  48 NW5       30.06S
JUNCTION       PTSUNNY   67  41  38 N5        30.04F
MIDLAND        MOSUNNY   62  35  36 NW6       30.06F
ODESSA         SUNNY     61  33  35 CALM      30.07F
SAN ANGELO     MOSUNNY   66  37  34 W5        30.05F
SONORA         CLOUDY    64  43  45 CALM      30.10F
SWEETWATER     MOSUNNY   62  31  31 CALM      30.10F
WINK           SUNNY     63  31  30 VRB5      30.05F
$$

TXZ055-058-074-075-080-082-182100-
FAR WEST/SOUTHWEST MOUNTAINS/TRANS PECOS

CITY           SKY/WX    TMP DP  RH WIND       PRES   REMARKS
ALPINE         CLOUDY    59  31  34 S10       30.15S
DRYDEN           N/A     61  44  53 SE3       30.05F
EL PASO        CLOUDY    53  36  52 SE6       30.08F
FORT STOCKTON  MOSUNNY   63  31  30 N5        30.06F
MARFA          PTSUNNY   57  27  30 S8        30.12F
PECOS          SUNNY     65  33  29 W8        30.05F
PRESIDIO       FAIR      60  32  34 NW6       30.06F
$$

TXZ014-016-019-021>030-083-182100
TEXAS TECH WEST TEXAS MESONET/TEXAS PANHANDLE/NORTHERN SOUTH PLAINS

CITY           SKY/WX    TMP DP  RH WIND       PRES   REMARKS
ABERNATHY 5ENE   N/A     52  34  51 N5        30.06F
AMARILLO 9NNE    N/A     39  29  68 NW5       30.08F
AMARILLO 7SSE    N/A     39  29  67 N6        30.08F
AMHERST 1NE      N/A     51  31  46 NE3       30.04F
BOOTLEG 11WNW    N/A     46  29  51 NW8       30.05F
CANADIAN 6E      N/A     41  38  89 W3        30.08F
CAPROCK CYN SP   N/A     41  37  84 N5        30.10F
CHILDRESS 2NNE   N/A     42  39  90 N5        30.11F
CLARENDON 2WSW   N/A     40  35  82 N7        30.09F WCI  35
CLAUDE 12SW      N/A     38  33  82 N6        30.08F WCI  33
DIMMITT 2NE      N/A     42  33  70 NE7       30.05F
FLOYDADA 2NNE    N/A     45  36  71 N8        30.06F
FRIONA 2NE       N/A     46  34  62 NE7       30.05F
GOODLETT 3W      N/A     44  38  80 N6        30.11F
HART 3N          N/A     43  35  73 NE7       30.05F
HEREFORD 2NW     N/A     43  32  65 NE3       30.05F
MCLEAN 1E        N/A     39  35  86 N6        30.08F WCI  35
MEMPHIS 1NE      N/A     43  37  80 N1        30.11F
MULESHOE 2SSW    N/A     55  26  32 W6        30.03F
OLTON 6S         N/A     49  34  56 NE6       30.05F
PALO DURO SP     N/A     43  31  63 NE5       30.08F
PAMPA 2E         N/A     36  33  88 NW5       30.09S WCI  32
PLAINVIEW 1S     N/A     46  36  69 NE6       30.06F
SILVERTON 7ESE   N/A     39  36  89 N3        30.08F
TULIA 2ENE       N/A     38  36  92 E2        30.08F
TURKEY 2WSW      N/A     42  37  84 N5        30.09F
UMBARGER 3NNE    N/A     43  31  64 N5        30.06F
$$

TXZ033>036-039>041-045>048-182100
TEXAS TECH WEST TEXAS MESONET/SOUTH PLAINS

CITY           SKY/WX    TMP DP  RH WIND       PRES   REMARKS
AIKEN 3WSW       N/A     44  37  74 N8        30.07F
ANTON 6SSW       N/A     56  31  38 N6        30.04F
BROWNFIELD 2S    N/A     60  26  26 W3        30.05F
DENVR CTY 7WNW   N/A     58  25  28 W7        30.05F
GAIL 2ESE        N/A     62  31  31 S5        30.05F
LAMESA 2SE       N/A     63  29  27 SW5       30.06F
LEVELLAND 4S     N/A     58  26  28 NE6       30.03F
LUBBOCK 3WNW     N/A     55  29  37 N3        30.05F
MORTON 1ENE      N/A     58  22  24 W12       30.03F
ODONNELL 1N      N/A     62  25  24 W6        30.06F
PLAINS 3N        N/A     59  25  26 W8        30.05F
RALLS 1SE        N/A     52  33  49 NW9       30.07F
REESE CENTER     N/A     57  27  31 N5        30.04F
SEAGRAVES 1SW    N/A     61  27  28 SW7       30.05F
SEMINOLE 2NNE    N/A     59  27  29 SW6       30.06F
SLATON 2NE       N/A     55  29  37 N7        30.06F
SNYDER 3E        N/A     60  33  35 N5        30.07F
SUNDOWN 8SW      N/A     60  23  23 W9        30.04F
TAHOKA 3NNE      N/A     59  29  31 N5        30.05F
WOLFFORTH 6SSW   N/A     59  28  30 N3        30.04F
$$

TXZ031-032-036>038-042>044-182100-
TEXAS TECH WEST TEXAS MESONET/ROLLING PLAINS

CITY           SKY/WX    TMP DP  RH WIND       PRES   REMARKS
ASPERMONT 3NE    N/A     53  38  57 N6        30.09F
FLUVANNA 3WNW    N/A     58  31  35 N6        30.06F
GRAHAM 5SSW      N/A     58  29  33 N1        30.06F
GUTHRIE 10WSW    N/A     50  38  62 N9        30.08F
HASKELL 1NW      N/A     51  39  64 N8        30.09F
JAYTON 1SSE      N/A     55  36  49 N5        30.08F
KNOX CITY 3NW    N/A     49  39  70 N10       30.11F
LK A HENRY 1NW   N/A     60  31  34 CALM      30.06F
NORTHFIELD 1S    N/A     43  40  89 N6        30.10F
ODELL 4ENE       N/A     45  41  85 NE2       30.12F
PADUCAH 10SW     N/A     44  39  82 N7        30.10F
POST 1NE         N/A     59  31  33 NW5       30.06F
RRING SPRGS 3N   N/A     43  38  83 N8        30.09F
SEYMOUR 3NW      N/A     46  42  86 N8        30.11F
SPUR 1W          N/A     52  36  54 NE7       30.07F
WHITE RVR 6NE    N/A     55  34  44 NW8       30.06F
$$

TXZ052-054-060>062-072-078-127-140-154-169-182100-
TEXAS TECH WEST TEXAS MESONET/PERMIAN BASIN/
CONCHO VALLEY/BIG COUNTRY/EDWARDS PLATEAU

CITY           SKY/WX    TMP DP  RH WIND       PRES   REMARKS
COYANOSA 2N      N/A     67  32  27 W8        30.05F
JUNCTION 1SSW    N/A     67  43  42 N6        30.05F
MERTZON 3NNE     N/A     66  37  34 NW5       30.06F
SAN ANGELO 7NW   N/A     65  31  28 NW2       30.06F
STRLNG CT 4WSW   N/A     64  34  32 N2        30.06F
ST LAWRNCE 5SW   N/A     64  33  31 NE3       30.06F
SWEETWATR 11SW   N/A     62  34  35 W5        30.08F
WALL 1E          N/A     65  36  34 NW1       30.07F
$$

TXZ055-058-074-075-080-082-182100-
TEXAS TECH WEST TEXAS MESONET/FAR WEST/SOUTHWEST MOUNTAINS/TRANS PECOS

CITY           SKY/WX    TMP DP  RH WIND       PRES   REMARKS
PRSMN GAP BBNP   N/A     59  40  50 N13       30.05F
$$